This demonstration page uses our WeatherBlox Daily Observations layout. Learn more.

Left ArrowRight Arrow

Hourly Observations for May 10, 2022

Temp ( °F °C ) Dew Point ( °F °C ) Humidity (%) Winds ( mph kmh ) Pressure ( in mb ) Visibility ( mi km ) Precip ( " mm )
12:52 am 00:52 Mostly Cloudy 76 24.4 69 20.6 79 79 SSE 13 20 29.84 1011 10 16 0.00 0.00
1:52 am 01:52 Cloudy 76 24.4 68 20 77 77 S 15 24 29.83 1010 10 16 0.00 0.00
2:52 am 02:52 Clear 74 23.3 67 19.4 79 79 S 14 22 29.83 1010 10 16 0.00 0.00
3:52 am 03:52 Clear 73 22.8 67 19.4 81 81 SSE 14 22 29.84 1011 10 16 0.00 0.00
4:52 am 04:52 Clear 73 22.8 67 19.4 81 81 SSE 13 20 29.86 1011 10 16 0.00 0.00
5:52 am 05:52 Clear 72 22.2 67 19.4 84 84 SSE 12 19 29.88 1012 10 16 0.00 0.00
6:52 am 06:52 Sunny 72 22.2 68 20 87 87 SSE 12 19 29.91 1013 10 16 0.00 0.00
7:52 am 07:52 Sunny 74 23.3 69 20.6 85 85 S 13 20 29.93 1014 10 16 0.00 0.00
8:52 am 08:52 Sunny 77 25 70 21.1 79 79 S 15 24 29.93 1014 10 16 0.00 0.00
9:52 am 09:52 Sunny 79 26.1 71 21.7 77 77 S 17 28 29.95 1014 10 16 0.00 0.00
10:52 am 10:52 Mostly Sunny 81 27.2 71 21.7 72 72 S 17 28 29.96 1015 10 16 0.00 0.00
11:52 am 11:52 Mostly Sunny 85 29.4 72 22.2 65 65 SSW 18 30 29.97 1015 10 16 0.00 0.00
12:52 pm 12:52 Cloudy 84 28.9 72 22.2 67 67 SW 12 19 29.98 1015 10 16 0.00 0.00
1:52 pm 13:52 Cloudy 85 29.4 72 22.2 65 65 WSW 14 22 29.98 1015 10 16 0.00 0.00
2:52 pm 14:52 Mostly Cloudy 85 29.4 73 22.8 68 68 SW 16 26 29.98 1015 10 16 0.00 0.00
3:52 pm 15:52 Cloudy 82 27.8 72 22.2 72 72 SSW 13 20 29.98 1015 9 14 0.00 0.00
4:52 pm 16:52 Cloudy 82 27.8 72 22.2 72 72 SSW 15 24 29.98 1015 9 14 0.00 0.00
5:52 pm 17:52 Cloudy 81 27.2 72 22.2 74 74 SSW 12 19 29.98 1015 9 14 0.00 0.00
6:52 pm 18:52 Mostly Sunny 81 27.2 73 22.8 77 77 SSW 3 6 29.98 1015 8 13 0.00 0.00
7:52 pm 19:52 Sunny 80 26.7 73 22.8 79 79 Calm 29.98 1015 8 13 0.00 0.00
8:52 pm 20:52 Clear 76 24.4 72 22.2 88 88 Calm 30.00 1016 8 13 0.00 0.00
9:52 pm 21:52 Clear 74 23.3 71 21.7 91 91 SSE 6 9 30.01 1016 7 11 0.00 0.00
10:52 pm 22:52 Clear 76 24.4 70 21.1 82 82 SSE 8 13 30.01 1016 9 14 0.00 0.00
11:52 pm 23:52 Clear 75 23.9 69 20.6 82 82 S 9 15 30.02 1017 10 16 0.00 0.00

Powered by AerisWeather